Wind_Speed
45 42 40 38 36 33 31 28 26 24 22 21 19 19 18 18 17 17 17 16 17 16 14 16 17 17 15 15 15 15 16 17 12 19 25 27 27 28 27 27 24 23 23
45 43 41 38 35 33 33 31 27 26 24 22 20 20 20 19 18 18 18 16 17 17 16 15 17 15 15 14 15 14 16 18 15 16 22 26 25 25 24 26 24 24 20
41 42 40 39 36 35 34 32 29 27 25 23 22 22 21 20 19 19 18 18 17 16 16 16 16 14 16 14 14 14 15 16 14 14 15 23 26 26 26 24 25 27 16
37 40 41 40 39 36 34 33 30 28 27 25 24 23 22 20 20 20 19 19 18 17 16 16 16 15 15 15 14 14 14 16 16 15 15 18 22 26 24 21 22 25 18
35 37 41 41 39 36 34 32 31 29 28 26 25 24 23 22 21 21 20 19 18 18 16 17 17 16 14 13 14 13 14 14 16 14 14 14 16 21 23 25 16 21 12
31 36 38 38 38 37 34 32 31 30 29 27 27 26 25 24 22 20 19 19 18 18 19 17 17 16 14 11 10 8 11 14 14 10 10 12 14 18 22 19 15 13 7
29 32 34 36 36 36 35 33 32 32 30 30 29 27 27 25 22 20 18 19 20 20 19 18 17 15 13 11 9 8 11 12 10 12 12 11 13 14 17 21 17 11 11
25 28 29 32 35 35 34 35 34 33 32 32 31 29 28 27 23 21 19 19 20 20 19 17 16 14 11 10 9 9 12 13 12 11 12 12 12 13 12 13 16 18 11
23 25 27 29 32 33 34 35 35 33 33 33 32 30 29 28 24 21 18 19 20 20 18 17 15 13 11 11 12 11 14 14 9 8 9 11 12 11 9 11 13 16 6
21 24 23 25 29 32 34 34 34 33 34 32 32 31 29 28 23 21 20 20 21 20 18 16 14 13 11 11 13 13 16 14 10 9 8 7 6 6 7 9 8 9 7
14 17 20 22 26 29 31 31 32 31 32 31 31 31 29 28 25 23 21 21 22 20 19 17 14 11 10 12 13 16 17 11 9 10 7 7 5 5 5 6 6 7 8
12 15 18 20 23 25 27 29 29 29 29 31 30 31 30 28 26 24 23 22 21 22 22 18 14 12 10 12 13 16 14 11 10 8 7 5 5 5 4 5 5 5 7
13 16 19 21 21 23 25 26 28 28 29 27 28 28 31 30 28 26 24 22 21 23 22 18 15 14 14 14 14 14 12 12 9 7 6 6 6 7 6 5 3 5 4
21 21 19 20 23 23 24 26 28 28 27 24 23 23 27 29 27 27 26 25 23 21 22 20 20 18 16 17 16 15 14 11 9 6 6 6 5 6 6 6 5 6 3
23 24 22 22 22 25 26 29 31 33 33 31 32 32 26 27 32 28 27 28 27 25 23 22 21 20 20 20 19 19 17 12 10 7 6 6 7 6 5 4 5 6 5
22 26 25 23 23 24 26 28 28 30 31 32 32 31 31 30 25 20 22 24 24 24 24 25 27 24 23 23 23 22 20 16 13 9 8 8 8 6 4 3 3 4 5
18 23 24 22 24 24 24 24 20 26 30 29 29 30 29 26 24 21 20 21 23 24 27 29 28 26 25 24 23 22 22 18 14 12 11 10 9 7 5 4 3 2 3
20 20 20 25 26 26 27 25 24 20 19 26 28 27 29 28 24 24 22 21 23 26 29 29 29 27 24 24 24 24 21 16 15 15 14 12 11 9 7 5 4 2 3
21 22 20 20 24 26 26 25 24 23 22 24 23 23 28 27 28 25 26 27 27 26 28 30 30 26 24 24 25 25 22 20 18 18 16 15 13 11 10 7 6 4 3
22 22 20 19 21 23 23 24 23 22 22 21 24 26 23 24 25 28 29 29 29 29 29 33 32 28 26 24 25 25 23 20 20 20 19 17 15 13 11 9 8 7 5
18 20 19 19 20 22 23 24 24 22 22 21 25 27 26 28 26 28 29 31 33 33 34 33 32 30 28 26 26 26 25 23 22 21 21 19 17 16 12 10 9 8 7
17 18 19 19 20 19 21 23 26 23 23 22 24 25 24 26 28 28 30 31 34 37 37 34 33 31 31 30 29 29 28 26 24 23 22 21 19 17 14 12 10 9 8
16 19 19 20 20 19 17 19 25 23 23 25 25 25 24 27 27 30 32 34 34 37 37 34 31 31 30 30 30 29 30 29 27 25 24 22 20 18 16 14 12 11 10
20 20 21 21 20 20 20 20 24 25 25 25 25 25 26 26 28 32 34 35 35 36 37 36 33 32 31 30 31 29 27 25 24 24 23 23 21 18 16 14 13 12 10
17 16 18 18 19 19 20 20 22 24 23 24 24 25 27 27 27 30 32 34 34 35 35 34 34 33 31 30 31 30 27 25 24 23 24 23 20 20 17 15 14 12 11
15 16 16 16 17 18 19 19 20 22 22 23 24 25 27 28 28 29 31 32 33 34 33 33 33 34 32 30 29 29 27 26 25 24 24 24 22 20 18 16 14 13 12
Wind_Direction
230 232 233 236 238 240 242 244 247 248 247 250 254 259 262 265 268 270 274 278 282 288 283 288 292 299 299 303 308 301 300 304 282 303 312 327 335 344 341 343 347 351 353
231 230 233 237 238 240 241 243 244 247 249 251 253 257 262 265 268 270 274 274 279 286 289 286 296 295 295 301 311 303 307 314 289 298 321 333 340 346 345 344 350 358 355
229 230 232 234 237 239 242 243 243 245 248 250 250 253 260 265 268 271 274 273 274 281 282 291 300 294 295 302 313 311 314 320 314 315 324 338 340 345 348 353 350 356 2
230 231 232 233 235 238 242 243 243 244 246 248 249 254 258 262 265 270 271 270 274 279 276 286 298 294 293 299 307 309 311 316 315 311 335 326 337 342 346 345 343 354 357
227 231 234 236 238 239 241 242 242 243 245 249 250 252 256 258 261 267 269 268 271 276 275 280 288 296 290 287 302 308 311 310 310 305 321 323 333 341 342 340 334 351 5
232 235 239 238 239 239 240 240 239 240 242 246 248 250 254 256 261 264 266 267 269 272 277 281 283 293 289 272 294 289 301 305 302 307 302 314 328 339 341 343 340 347 347
233 237 238 240 240 241 242 240 238 238 239 241 245 248 251 254 258 261 258 257 264 268 274 277 280 291 285 267 290 286 296 301 276 285 279 293 315 335 337 346 349 343 329
240 241 242 241 242 242 241 240 239 238 237 239 242 245 249 253 255 258 256 253 258 263 268 270 275 285 275 260 277 282 298 298 288 274 272 281 302 314 324 336 344 343 338
246 245 246 245 245 245 242 242 242 240 239 238 240 242 245 250 250 254 250 249 253 258 264 264 268 269 266 262 256 270 292 295 288 289 285 286 295 302 308 315 332 348 337
257 258 255 252 249 248 249 246 245 243 245 245 243 242 243 247 246 246 243 242 248 253 257 256 258 261 266 249 244 260 278 287 299 305 298 289 287 293 286 293 303 319 333
280 269 262 257 254 254 255 251 249 246 245 244 245 245 244 243 243 241 238 236 243 248 250 248 251 244 243 239 241 260 270 284 291 306 303 304 302 305 310 315 298 281 299
296 277 265 258 255 255 253 255 252 248 245 245 244 245 244 242 240 237 235 230 239 241 242 244 241 228 234 231 245 256 262 269 270 298 305 299 295 280 290 307 311 298 290
293 281 275 267 253 250 248 248 246 245 241 239 236 238 244 243 238 237 236 230 227 235 242 239 234 229 228 231 242 251 254 240 268 281 288 286 294 307 311 318 307 323 307
291 284 279 267 263 252 246 245 245 243 235 234 233 233 239 246 242 235 230 228 226 226 235 230 228 231 225 228 238 246 239 243 256 259 265 274 285 296 296 322 340 345 341
294 289 282 272 261 259 252 247 243 246 244 234 236 239 231 234 245 240 233 227 225 220 218 216 206 206 212 221 232 239 237 233 232 237 250 263 263 271 293 325 336 348 359
301 299 295 285 272 261 256 256 253 253 251 251 252 251 254 255 256 246 233 231 226 214 206 202 204 209 218 226 232 237 234 225 222 226 233 248 260 270 288 304 328 345 350
298 299 299 287 276 269 259 249 248 257 249 247 246 241 245 248 241 232 222 220 217 200 208 211 214 219 227 231 231 229 229 222 217 218 225 236 248 253 252 274 309 319 329
303 296 292 289 279 271 265 257 254 246 244 243 237 234 233 236 233 229 220 211 202 204 206 211 216 222 224 227 226 223 223 217 209 211 217 226 233 237 238 242 250 271 301
312 308 304 299 288 278 269 261 255 250 244 253 254 241 229 228 227 224 216 203 202 203 212 216 224 223 222 224 224 223 220 218 213 211 214 220 224 230 232 229 235 243 259
315 315 313 306 293 280 268 260 255 245 240 238 244 245 237 216 217 216 213 208 206 208 210 218 224 224 222 221 220 219 215 212 210 211 215 217 220 226 234 230 224 223 228
315 317 316 313 303 288 276 264 256 248 240 237 241 253 245 220 212 212 209 210 213 213 218 225 226 225 221 218 215 216 214 211 213 213 214 215 217 220 227 233 233 230 231
312 316 319 316 309 298 280 275 265 255 249 243 249 254 245 225 220 213 213 214 217 222 229 230 228 226 221 216 211 211 213 211 210 212 212 214 218 221 221 222 229 231 228
312 316 319 318 313 302 280 271 267 260 253 253 253 252 245 229 225 221 219 221 223 226 232 230 227 225 222 219 216 213 212 213 211 211 212 213 215 216 219 220 219 221 220
318 316 313 309 314 301 292 282 271 266 259 257 254 249 246 241 230 230 229 230 229 232 233 231 227 224 220 217 215 214 213 215 213 211 213 213 215 213 214 218 220 221 220
311 305 305 302 304 295 296 286 274 268 261 255 250 249 251 248 240 235 236 234 233 231 231 229 226 224 221 216 213 212 210 208 207 207 206 209 216 216 218 218 219 222 217
318 314 311 309 303 301 292 282 274 270 262 259 255 252 253 250 247 240 236 232 231 229 229 226 224 223 219 214 213 212 209 204 203 204 204 205 209 216 216 216 214 217 218
Height
813 818 822 826 830 834 837 839 842 843 844 845 847 848 848 848 848 847 847 847 846 845 844 843 842 841 839 837 836 835 833 831 826 819 814 810 805 799 794 790 785 779 775
803 809 814 819 823 827 830 832 836 838 840 841 842 842 843 844 844 843 843 843 842 841 840 839 838 837 835 834 832 831 830 827 823 818 813 807 803 799 794 788 784 780 775
796 801 806 810 814 818 821 826 829 831 833 835 836 837 837 838 839 839 838 838 838 838 837 835 834 833 832 831 829 828 826 824 821 817 813 808 803 797 791 787 782 778 775
789 793 797 800 803 807 812 817 821 824 826 828 830 831 831 832 833 834 834 834 834 833 833 832 831 829 828 827 826 825 823 820 818 815 811 808 803 797 792 787 782 777 772
779 786 788 792 796 799 803 807 812 816 819 821 823 825 826 826 827 828 829 828 829 829 829 828 827 826 825 824 823 822 820 817 815 812 810 808 804 798 791 787 784 779 774
777 778 782 786 789 792 795 799 803 806 810 814 815 818 819 820 821 823 823 823 824 824 824 823 823 822 821 821 820 819 817 814 812 810 808 806 803 800 794 788 785 780 776
768 770 773 778 781 784 787 790 793 796 800 803 806 809 811 813 815 816 817 818 818 819 818 818 818 818 817 816 816 815 813 810 808 808 804 803 802 800 796 790 786 784 781
767 768 769 772 774 776 779 781 783 786 789 792 796 799 802 804 807 809 810 811 812 813 813 813 813 813 813 813 812 811 809 805 804 803 803 802 800 798 797 793 788 783 780
763 763 764 766 768 771 771 773 776 778 780 782 785 789 793 795 799 801 803 804 805 806 807 807 808 808 809 809 808 807 804 801 801 802 802 801 799 798 796 794 790 785 781
760 760 760 761 763 764 766 767 768 771 773 776 778 780 783 786 790 792 795 797 798 799 801 801 803 803 803 804 804 803 800 798 799 799 798 796 795 794 793 792 791 788 785
754 755 756 756 757 759 760 762 763 764 766 767 769 772 776 777 780 784 787 789 790 791 793 795 797 798 799 800 800 798 796 797 797 797 796 795 794 793 791 790 788 786 785
751 752 751 750 750 752 755 757 758 759 759 761 762 764 766 769 772 775 777 780 783 784 785 789 791 793 793 795 795 793 794 795 795 795 795 794 793 791 790 788 786 785 784
746 745 746 746 743 744 746 748 751 753 754 754 755 756 757 760 764 767 769 772 775 776 779 782 785 787 788 789 790 790 791 791 793 793 792 792 791 791 789 787 786 785 784
742 739 739 739 741 739 738 740 741 745 747 749 750 749 750 753 756 759 761 764 766 769 772 776 779 781 782 784 785 786 787 789 790 791 790 790 789 789 787 787 786 784 783
739 735 733 732 731 732 732 731 731 730 734 736 738 741 743 744 745 749 752 754 757 761 765 768 771 775 776 777 779 781 783 785 786 787 788 788 787 786 786 786 785 785 784
732 731 730 728 726 724 723 723 724 725 725 726 728 731 734 736 739 741 744 747 751 755 756 759 762 766 769 771 772 775 777 780 782 784 785 785 784 785 785 785 784 784 784
726 723 723 723 721 720 718 717 715 716 718 719 721 724 725 728 731 734 736 739 744 747 747 750 753 756 760 764 765 768 772 775 778 780 781 781 782 783 783 783 783 783 782
722 716 715 715 715 712 712 709 710 711 712 711 712 714 719 722 725 727 731 734 737 739 739 741 744 748 752 756 759 761 767 771 773 775 777 778 779 780 781 781 780 780 781
718 714 709 705 707 707 705 704 702 702 703 707 708 708 710 715 719 721 724 724 726 729 731 734 736 740 744 748 752 756 760 765 768 771 772 774 775 777 778 778 778 778 779
712 711 707 700 698 700 700 700 698 696 696 696 700 702 704 709 711 714 715 716 717 719 722 726 729 732 736 740 745 750 754 759 762 766 768 769 772 773 775 775 775 775 776
704 701 701 697 695 694 694 695 693 691 690 689 689 695 698 699 700 703 706 708 709 711 713 718 722 725 729 732 737 742 747 751 756 760 763 765 767 769 771 773 774 774 774
700 696 694 691 689 688 689 688 689 685 684 683 683 685 691 693 692 694 697 699 701 704 706 709 714 717 721 724 728 733 739 744 749 754 757 760 762 765 767 769 771 772 773
696 693 688 686 685 683 681 680 684 679 677 677 677 677 681 684 685 686 688 691 694 697 700 703 707 710 714 718 721 725 730 735 740 746 751 755 757 760 763 765 766 768 770
692 688 685 682 677 678 675 672 676 674 671 671 671 671 671 673 676 678 680 683 686 690 692 696 700 703 707 711 715 719 723 729 735 739 744 749 752 755 758 761 763 765 766
688 685 682 678 674 673 670 669 668 667 665 664 664 664 664 665 666 668 671 674 678 681 684 689 692 697 700 704 708 713 717 723 728 733 738 743 748 751 754 756 759 761 763
683 681 679 675 672 669 666 664 662 661 659 657 656 656 657 657 658 660 662 664 669 673 677 681 685 691 695 698 703 708 714 718 723 728 733 737 742 746 749 752 754 757 760